Flag for Germany Weather past 2 weeks in Schweinfurt, Bavaria, Germany

Now
64 °F

Sunny.


Feels Like: 64 °F
Forecast: 58 / 79 °F
Wind: 1 mph from North

Location: Illesheim

Current Time: Jul 23, 2014 at 9:55:37 AM

Latest Report: Jul 23, 2014 at 7:58 AM


Visibility: N/A

Pressure: 30.01 "Hg

Humidity: 83%

Dew point: 59 °F

Location of SchweinfurtLocation

Historic Weather in Schweinfurt — Graph

°F

Schweinfurt temperature yesterday

Maximum temperature yesterday: 81 °F (at 5:58 PM)
Minimum temperature yesterday: 64 °F (at 5:58 AM)
Average temperature yesterday: 70 °F

Past Weeks' High & Low Weather Summary

 TemperatureHumidityPressure
High91 °F (Jul 19, 5:58 PM)100% (Jul 8, 7:59 AM)30.24 "Hg (Jul 8, 7:59 AM)
Low52 °F (Jul 9, 7:59 AM)26% (Jul 19, 5:58 PM)29.72 "Hg (Jul 9, 6:58 AM)
Average66 °F79%29.94 "Hg
* Reported Jul 8 7:59 AM — Jul 23 7:58 AM, Schweinfurt, Weather by CustomWeather, © 2014

Note: Actual official high and low records may vary slightly from our data, if they occured in-between our weather recording intervals... More about our weather records

Advertising

Schweinfurt weather history for previous 24 hours

 ConditionsComfort  
Time TempWeatherWind HumidityBarometerVisibility
7:58 AM
Jul 23
64 °FSunny.1 mph83%30.01 "HgN/A
6:58 AM59 °FSunny.No wind94%30.02 "HgN/A
5:58 AM56 °FClear.No wind99%30.01 "HgN/A
4:58 AM55 °FClear.3 mph100%30.01 "HgN/A
3:58 AM56 °FClear.3 mph95%30.00 "HgN/A
2:58 AM58 °FClear.2 mph93%30.00 "HgN/A
1:58 AM59 °FClear.2 mph94%30.00 "HgN/A
6:58 PM
Jul 22
79 °FSunny.10 mph45%29.93 "HgN/A
5:58 PM81 °FPassing clouds.14 mph43%29.92 "HgN/A
4:58 PM77 °FScattered clouds.13 mph57%29.92 "HgN/A
3:58 PM79 °FPassing clouds.16 mph61%29.92 "HgN/A
2:58 PM77 °FScattered clouds.10 mph65%29.92 "HgN/A
1:58 PM75 °FPartly sunny.12 mph74%29.92 "HgN/A
12:58 PM73 °FPartly sunny.12 mph78%29.93 "HgN/A
11:58 AM71 °FPartly sunny.7 mph88%29.92 "HgN/A
10:59 AM68 °FOvercast.8 mph100%29.94 "HgN/A
9:59 AM68 °FFog.9 mph100%29.93 "Hg6 mi
9:58 AM68 °FFog.9 mph100%29.90 "Hg6 mi
Weather by CustomWeather, © 2014

See weather overviewHow to use our weather pages